Durant, OK

3:38 PM CST on December 12, 2019 (GMT -0600)
Eaker

Weather History for KDUA - October, 2019

Change the Weather History Date:

Tuesday, October 8, 2019

  Actual Average (WUND) Record (WUND)
Temperature  
Mean Temperature 65 °F -  
Max Temperature 80 °F - - (-1)
Min Temperature 50 °F - - (-1)
Growing Degree Days 15 (Base 50)    
Moisture  
Dew Point 46 °F    
Average Humidity 60    
Maximum Humidity 88    
Minimum Humidity 24    
Precipitation  
Precipitation 0.00 in - - ()
Sea Level Pressure  
Sea Level Pressure 30.11 in    
Wind  
Wind Speed 2 mph (SE)    
Max Wind Speed 9 mph    
Max Gust Speed -    
Visibility 10 miles    
Events      
Averages and records for this station are not official NWS values.
T = Trace of Precipitation, MM = Missing Value Source: NWS Daily Summary

Daily Weather History Graph

Daily Weather History Graph

Search for Another Location

Airport or City:

Astronomy

Oct. 08, 2019 Rise Set
Actual Time 7:25 AM CDT 7:00 PM CDT
Civil Twilight 7:00 AM CDT 7:25 PM CDT
Nautical Twilight 6:31 AM CDT 7:54 PM CDT
Astronomical Twilight 6:02 AM CDT 8:23 PM CDT
Moon 4:43 PM CDT (10/8) 2:33 AM CDT (10/8)
Length of Visible Light 12h 25m
Length of Day
11h 35m
Waxing Gibbous, 78% of the Moon is Illuminated
Oct 8
Waxing Gibbous
Oct 13
Full
Oct 21
Last Quarter
Oct 27
New
Nov 4
First Quarter

Hourly Weather History & Observations

Time (CDT) Temp. Dew Point Humidity Pressure Visibility Wind Dir Wind Speed Gust Speed Precip Events Conditions
12:15 AM 55.4 °F 46.4 °F 72% 30.18 in 10.0 mi Calm Calm - N/A   Clear
12:56 AM 55.4 °F 48.2 °F 77% 30.17 in 10.0 mi Calm Calm - N/A   Clear
1:16 AM 55.4 °F 48.2 °F 77% 30.17 in 10.0 mi West 3.5 mph - N/A   Clear
1:34 AM 57.2 °F 48.2 °F 72% 30.17 in 10.0 mi Calm Calm - N/A   Clear
1:54 AM 55.4 °F 48.2 °F 77% 30.17 in 10.0 mi Calm Calm - N/A   Clear
2:15 AM 55.4 °F 48.2 °F 77% 30.17 in 10.0 mi Calm Calm - N/A   Clear
2:56 AM 53.6 °F 46.4 °F 77% 30.17 in 10.0 mi Calm Calm - N/A   Clear
3:14 AM 53.6 °F 48.2 °F 82% 30.17 in 10.0 mi Calm Calm - N/A   Clear
3:35 AM 53.6 °F 48.2 °F 82% 30.16 in 10.0 mi Calm Calm - N/A   Clear
3:56 AM 55.4 °F 48.2 °F 77% 30.16 in 10.0 mi Calm Calm - N/A   Clear
4:17 AM 55.4 °F 48.2 °F 77% 30.16 in 10.0 mi Calm Calm - N/A   Clear
4:35 AM 55.4 °F 48.2 °F 77% 30.17 in 10.0 mi Calm Calm - N/A   Clear
4:56 AM 53.6 °F 48.2 °F 82% 30.17 in 10.0 mi Calm Calm - N/A   Clear
5:16 AM 53.6 °F 46.4 °F 77% 30.17 in 10.0 mi NNE 3.5 mph - N/A   Clear
5:35 AM 53.6 °F 46.4 °F 77% 30.17 in 10.0 mi Calm Calm - N/A   Clear
6:35 AM 50.0 °F 46.4 °F 87% 30.17 in 10.0 mi Calm Calm - N/A   Clear
6:55 AM 51.8 °F 48.2 °F 88% 30.18 in 10.0 mi Calm Calm - N/A   Clear
7:55 AM 51.8 °F 48.2 °F 88% 30.17 in 10.0 mi Calm Calm - N/A   Clear
8:37 AM 55.4 °F 51.8 °F 88% 30.18 in 10.0 mi Calm Calm - N/A   Clear
9:15 AM 60.8 °F 53.6 °F 77% 30.19 in 10.0 mi ESE 3.5 mph - N/A   Clear
10:36 AM 69.8 °F 46.4 °F 43% 30.19 in 10.0 mi SE 8.1 mph - N/A   Clear
10:55 AM 69.8 °F 44.6 °F 40% 30.19 in 10.0 mi SE 9.2 mph - N/A   Clear
12:15 PM 73.4 °F 42.8 °F 33% 30.17 in 10.0 mi South 4.6 mph - N/A   Clear
12:35 PM 73.4 °F 44.6 °F 36% 30.15 in 10.0 mi ESE 6.9 mph - N/A   Clear
1:36 PM 77.0 °F 42.8 °F 29% 30.11 in 10.0 mi ESE 4.6 mph - N/A   Clear
1:55 PM 78.8 °F 42.8 °F 28% 30.10 in 10.0 mi SSE 5.8 mph - N/A   Clear
2:15 PM 78.8 °F 41.0 °F 26% 30.09 in 10.0 mi East 5.8 mph - N/A   Clear
2:35 PM 78.8 °F 42.8 °F 28% 30.08 in 10.0 mi South 4.6 mph - N/A   Clear
3:16 PM 80.6 °F 41.0 °F 24% 30.06 in 10.0 mi Calm Calm - N/A   Clear
4:35 PM 80.6 °F 42.8 °F 26% 30.04 in 10.0 mi SE 8.1 mph - N/A   Clear
5:17 PM 80.6 °F 42.8 °F 26% 30.03 in 10.0 mi SSE 5.8 mph - N/A   Clear
5:35 PM 78.8 °F 42.8 °F 28% 30.03 in 10.0 mi SE 5.8 mph - N/A   Clear
5:56 PM 78.8 °F 42.8 °F 28% 30.02 in 10.0 mi SE 4.6 mph - N/A   Clear
6:15 PM 77.0 °F 42.8 °F 29% 30.01 in 10.0 mi SE 6.9 mph - N/A   Clear
6:37 PM 75.2 °F 42.8 °F 31% 30.01 in 10.0 mi ESE 4.6 mph - N/A   Clear
7:15 PM 69.8 °F 46.4 °F 43% 30.01 in 10.0 mi ESE 4.6 mph - N/A   Clear
7:55 PM 64.4 °F 48.2 °F 56% 30.01 in 10.0 mi ESE 5.8 mph - N/A   Clear
8:17 PM 64.4 °F 48.2 °F 56% 30.01 in 10.0 mi ESE 5.8 mph - N/A   Clear
8:37 PM 62.6 °F 48.2 °F 59% 30.01 in 10.0 mi ESE 5.8 mph - N/A   Clear
9:57 PM 60.8 °F 48.2 °F 63% 30.02 in 10.0 mi Calm Calm - N/A   Clear
10:15 PM 60.8 °F 48.2 °F 63% 30.03 in 10.0 mi Calm Calm - N/A   Clear
10:35 PM 60.8 °F 48.2 °F 63% 30.03 in 10.0 mi SE 3.5 mph - N/A   Clear
10:55 PM 57.2 °F 48.2 °F 72% 30.03 in 10.0 mi Calm Calm - N/A   Clear
11:16 PM 57.2 °F 48.2 °F 72% 30.03 in 10.0 mi SE 3.5 mph - N/A   Clear
11:37 PM 55.4 °F 48.2 °F 77% 30.02 in 10.0 mi SE 3.5 mph - N/A   Clear
11:57 PM 55.4 °F 48.2 °F 77% 30.02 in 10.0 mi SE 3.5 mph - N/A   Clear